Погода в Полевом

Россия / Приморский край     45°25′54″N   133°23′02″E
темп.,
°C
ветер,
м/с
пор.,
м/с
влажн.,
%
обл.,
%
осадки,
мм/ч
давл.,
гПа
погр.,
м
8 мая, сб
сб801:00+11всв238098 0.4 98877
04:00+10зюз4894100 1.7 989499
07:00+10ююз3593100 0.8 991360
10:00+10зюз5989100 1.4 994675
13:00+13юз7968100 0.7 9951192
16:00+16ююз4753100 0.7 9941492
19:00+15всв3767100 0.0 992207
22:00+13юв51162100 0.1 990440
9 мая, вс
вс901:00+13юв61350100 0.1 988603
04:00+9ююз61088100 1.2 989890
07:00+8ююв3790100 4.8 992502
10:00+9вюв3485100 5.5 992424
13:00+8зюз2388100 0.7 994276
16:00+9зсз1283100 0.8 996257
19:00+9зсз3589100 0.1 998328
22:00+8сз3594100 0.3 1000192
10 мая, пн
пн1001:00+7ссз3696100 0.1 1002326
04:00+7ссз3894100 0.2 1004450
07:00+7ссз4695100 0.1 1007366
10:00+7ссз4591100 0.1 1008397
13:00+9сз4581100 0.1 1010864
16:00+9ссз5675100 0.1 10101084
19:00+8ссз3781100 0.1 1012405
22:00+6с3784100 0.2 1014481
11 мая, вт
вт1101:00+6ссз1388100 0.0 101594
04:00+6сз229396 0.0 101568
07:00+6ссз139380 0.0 1017136
10:00+10с247396 0.1 1017787
13:00+13ссв236193 0.3 10171334
16:00+14св225774 0.5 10171276
19:00+13вюв23665 0.1 1017255
22:00+8ююв22765 0.1 101823
12 мая, ср
ср1201:00+7ююв338138 0.0 101848
04:00+6ю3589100 0.0 1018108
07:00+7юв3786100 0.0 1017200
10:00+12ю5106598 0.0 1016961
13:00+14ю61062100 0.0 10141150
16:00+13ююз71266100 0.0 10131287
19:00+10ююз71383100 0.8 1012692
22:00+9ююз71690100 3.4 10131014